Year,Month,Day,Hour,Minute,Value (Times are PST for insolation in W/m^2)
2017,10,11,00,00,0.00
2017,10,11,00,01,0.00
2017,10,11,00,02,0.00
2017,10,11,00,03,0.00
2017,10,11,00,04,0.00
2017,10,11,00,05,0.00
2017,10,11,00,06,0.00
2017,10,11,00,07,0.00
2017,10,11,00,08,0.00
2017,10,11,00,09,0.00
2017,10,11,00,10,0.00
2017,10,11,00,11,0.00
2017,10,11,00,12,0.00
2017,10,11,00,13,0.00
2017,10,11,00,14,0.00
2017,10,11,00,15,0.00
2017,10,11,00,16,0.00
2017,10,11,00,17,0.00
2017,10,11,00,18,0.00
2017,10,11,00,19,0.00
2017,10,11,00,20,0.00
2017,10,11,00,21,0.00
2017,10,11,00,22,0.00
2017,10,11,00,23,0.00
2017,10,11,00,24,0.00
2017,10,11,00,25,0.00
2017,10,11,00,26,0.00
2017,10,11,00,27,0.00
2017,10,11,00,28,0.00
2017,10,11,00,29,0.00
2017,10,11,00,30,0.00
2017,10,11,00,31,0.00
2017,10,11,00,32,0.00
2017,10,11,00,33,0.00
2017,10,11,00,34,0.00
2017,10,11,00,35,0.00
2017,10,11,00,36,0.00
2017,10,11,00,37,0.00
2017,10,11,00,38,0.00
2017,10,11,00,39,0.00
2017,10,11,00,40,0.00
2017,10,11,00,41,0.00
2017,10,11,00,42,0.00
2017,10,11,00,43,0.00
2017,10,11,00,44,0.00
2017,10,11,00,45,0.00
2017,10,11,00,46,0.00
2017,10,11,00,47,0.00
2017,10,11,00,48,0.00
2017,10,11,00,49,0.00
2017,10,11,00,50,0.00
2017,10,11,00,51,0.00
2017,10,11,00,52,0.00
2017,10,11,00,53,0.00
2017,10,11,00,54,0.00
2017,10,11,00,55,0.00
2017,10,11,00,56,0.00
2017,10,11,00,57,0.00
2017,10,11,00,58,0.00
2017,10,11,00,59,0.00
2017,10,11,01,00,0.00
2017,10,11,01,01,0.00
2017,10,11,01,02,0.00
2017,10,11,01,03,0.00
2017,10,11,01,04,0.00
2017,10,11,01,05,0.00
2017,10,11,01,06,0.00
2017,10,11,01,07,0.00
2017,10,11,01,08,0.00
2017,10,11,01,09,0.00
2017,10,11,01,10,0.00
2017,10,11,01,11,0.00
2017,10,11,01,12,0.00
2017,10,11,01,13,0.00
2017,10,11,01,14,0.00
2017,10,11,01,15,0.00
2017,10,11,01,16,0.00
2017,10,11,01,17,0.00
2017,10,11,01,18,0.00
2017,10,11,01,19,0.00
2017,10,11,01,20,0.00
2017,10,11,01,21,0.00
2017,10,11,01,22,0.00
2017,10,11,01,23,0.00
2017,10,11,01,24,0.00
2017,10,11,01,25,0.00
2017,10,11,01,26,0.00
2017,10,11,01,27,0.00
2017,10,11,01,28,0.00
2017,10,11,01,29,0.00
2017,10,11,01,30,0.00
2017,10,11,01,31,0.00
2017,10,11,01,32,0.00
2017,10,11,01,33,0.00
2017,10,11,01,34,0.00
2017,10,11,01,35,0.00
2017,10,11,01,36,0.00
2017,10,11,01,37,0.00
2017,10,11,01,38,0.00
2017,10,11,01,39,0.00
2017,10,11,01,40,0.00
2017,10,11,01,41,0.00
2017,10,11,01,42,0.00
2017,10,11,01,43,0.00
2017,10,11,01,44,0.00
2017,10,11,01,45,0.00
2017,10,11,01,46,0.00
2017,10,11,01,47,0.00
2017,10,11,01,48,0.00
2017,10,11,01,49,0.00
2017,10,11,01,50,0.00
2017,10,11,01,51,0.00
2017,10,11,01,52,0.00
2017,10,11,01,53,0.00
2017,10,11,01,54,0.00
2017,10,11,01,55,0.00
2017,10,11,01,56,0.00
2017,10,11,01,57,0.00
2017,10,11,01,58,0.00
2017,10,11,01,59,0.00
2017,10,11,02,00,0.00
2017,10,11,02,01,0.00
2017,10,11,02,02,0.00
2017,10,11,02,03,0.00
2017,10,11,02,04,0.00
2017,10,11,02,05,0.00
2017,10,11,02,06,0.00
2017,10,11,02,07,0.00
2017,10,11,02,08,0.00
2017,10,11,02,09,0.00
2017,10,11,02,10,0.00
2017,10,11,02,11,0.00
2017,10,11,02,12,0.00
2017,10,11,02,13,0.00
2017,10,11,02,14,0.00
2017,10,11,02,15,0.00
2017,10,11,02,16,0.00
2017,10,11,02,17,0.00
2017,10,11,02,18,0.00
2017,10,11,02,19,0.00
2017,10,11,02,20,0.00
2017,10,11,02,21,0.00
2017,10,11,02,22,0.00
2017,10,11,02,23,0.00
2017,10,11,02,24,0.00
2017,10,11,02,25,0.00
2017,10,11,02,26,0.00
2017,10,11,02,27,0.00
2017,10,11,02,28,0.00
2017,10,11,02,29,0.00
2017,10,11,02,30,0.00
2017,10,11,02,31,0.00
2017,10,11,02,32,0.00
2017,10,11,02,33,0.00
2017,10,11,02,34,0.00
2017,10,11,02,35,0.00
2017,10,11,02,36,0.00
2017,10,11,02,37,0.00
2017,10,11,02,38,0.00
2017,10,11,02,39,0.00
2017,10,11,02,40,0.00
2017,10,11,02,41,0.00
2017,10,11,02,42,0.00
2017,10,11,02,43,0.00
2017,10,11,02,44,0.00
2017,10,11,02,45,0.00
2017,10,11,02,46,0.00
2017,10,11,02,47,0.00
2017,10,11,02,48,0.00
2017,10,11,02,49,0.00
2017,10,11,02,50,0.00
2017,10,11,02,51,0.00
2017,10,11,02,52,0.00
2017,10,11,02,53,0.00
2017,10,11,02,54,0.00
2017,10,11,02,55,0.00
2017,10,11,02,56,0.00
2017,10,11,02,57,0.00
2017,10,11,02,58,0.00
2017,10,11,02,59,0.00
2017,10,11,03,00,0.00
2017,10,11,03,01,0.00
2017,10,11,03,02,0.00
2017,10,11,03,03,0.00
2017,10,11,03,04,0.00
2017,10,11,03,05,0.00
2017,10,11,03,06,0.00
2017,10,11,03,07,0.00
2017,10,11,03,08,0.00
2017,10,11,03,09,0.00
2017,10,11,03,10,0.00
2017,10,11,03,11,0.00
2017,10,11,03,12,0.00
2017,10,11,03,13,0.00
2017,10,11,03,14,0.00
2017,10,11,03,15,0.00
2017,10,11,03,16,0.00
2017,10,11,03,17,0.00
2017,10,11,03,18,0.00
2017,10,11,03,19,0.00
2017,10,11,03,20,0.00
2017,10,11,03,21,0.00
2017,10,11,03,22,0.00
2017,10,11,03,23,0.00
2017,10,11,03,24,0.00
2017,10,11,03,25,0.00
2017,10,11,03,26,0.00
2017,10,11,03,27,0.00
2017,10,11,03,28,0.00
2017,10,11,03,29,0.00
2017,10,11,03,30,0.00
2017,10,11,03,31,0.00
2017,10,11,03,32,0.00
2017,10,11,03,33,0.00
2017,10,11,03,34,0.00
2017,10,11,03,35,0.00
2017,10,11,03,36,0.00
2017,10,11,03,37,0.00
2017,10,11,03,38,0.00
2017,10,11,03,39,0.00
2017,10,11,03,40,0.00
2017,10,11,03,41,0.00
2017,10,11,03,42,0.00
2017,10,11,03,43,0.00
2017,10,11,03,44,0.00
2017,10,11,03,45,0.00
2017,10,11,03,46,0.00
2017,10,11,03,47,0.00
2017,10,11,03,48,0.00
2017,10,11,03,49,0.00
2017,10,11,03,50,0.00
2017,10,11,03,51,0.00
2017,10,11,03,52,0.00
2017,10,11,03,53,0.00
2017,10,11,03,54,0.00
2017,10,11,03,55,0.00
2017,10,11,03,56,0.00
2017,10,11,03,57,0.00
2017,10,11,03,58,0.00
2017,10,11,03,59,0.00
2017,10,11,04,00,0.00
2017,10,11,04,01,0.00
2017,10,11,04,02,0.00
2017,10,11,04,03,0.00
2017,10,11,04,04,0.00
2017,10,11,04,05,0.00
2017,10,11,04,06,0.00
2017,10,11,04,07,0.00
2017,10,11,04,08,0.00
2017,10,11,04,09,0.00
2017,10,11,04,10,0.00
2017,10,11,04,11,0.00
2017,10,11,04,12,0.00
2017,10,11,04,13,0.00
2017,10,11,04,14,0.00
2017,10,11,04,15,0.00
2017,10,11,04,16,0.00
2017,10,11,04,17,0.00
2017,10,11,04,18,0.00
2017,10,11,04,19,0.00
2017,10,11,04,20,0.00
2017,10,11,04,21,0.00
2017,10,11,04,22,0.00
2017,10,11,04,23,0.00
2017,10,11,04,24,0.00
2017,10,11,04,25,0.00
2017,10,11,04,26,0.00
2017,10,11,04,27,0.00
2017,10,11,04,28,0.00
2017,10,11,04,29,0.00
2017,10,11,04,30,0.00
2017,10,11,04,31,0.00
2017,10,11,04,32,0.00
2017,10,11,04,33,0.00
2017,10,11,04,34,0.00
2017,10,11,04,35,0.00
2017,10,11,04,36,0.00
2017,10,11,04,37,0.00
2017,10,11,04,38,0.00
2017,10,11,04,39,0.00
2017,10,11,04,40,0.00
2017,10,11,04,41,0.00
2017,10,11,04,42,0.00
2017,10,11,04,43,0.00
2017,10,11,04,44,0.00
2017,10,11,04,45,0.00
2017,10,11,04,46,0.00
2017,10,11,04,47,0.00
2017,10,11,04,48,0.00
2017,10,11,04,49,0.00
2017,10,11,04,50,0.00
2017,10,11,04,51,0.00
2017,10,11,04,52,0.00
2017,10,11,04,53,0.00
2017,10,11,04,54,0.00
2017,10,11,04,55,0.00
2017,10,11,04,56,0.00
2017,10,11,04,57,0.00
2017,10,11,04,58,0.00
2017,10,11,04,59,0.00
2017,10,11,05,00,0.00
2017,10,11,05,01,0.00
2017,10,11,05,02,0.00
2017,10,11,05,03,0.00
2017,10,11,05,04,0.00
2017,10,11,05,05,0.00
2017,10,11,05,06,0.00
2017,10,11,05,07,0.00
2017,10,11,05,08,0.00
2017,10,11,05,09,0.00
2017,10,11,05,10,0.00
2017,10,11,05,11,0.00
2017,10,11,05,12,0.00
2017,10,11,05,13,0.00
2017,10,11,05,14,0.00
2017,10,11,05,15,0.00
2017,10,11,05,16,0.00
2017,10,11,05,17,0.00
2017,10,11,05,18,0.00
2017,10,11,05,19,0.00
2017,10,11,05,20,0.00
2017,10,11,05,21,0.00
2017,10,11,05,22,0.00
2017,10,11,05,23,0.00
2017,10,11,05,24,0.00
2017,10,11,05,25,0.00
2017,10,11,05,26,0.00
2017,10,11,05,27,0.00
2017,10,11,05,28,0.00
2017,10,11,05,29,0.00
2017,10,11,05,30,0.00
2017,10,11,05,31,0.00
2017,10,11,05,32,0.00
2017,10,11,05,33,0.00
2017,10,11,05,34,0.00
2017,10,11,05,35,0.00
2017,10,11,05,36,0.00
2017,10,11,05,37,0.00
2017,10,11,05,38,0.00
2017,10,11,05,39,0.00
2017,10,11,05,40,0.00
2017,10,11,05,41,0.00
2017,10,11,05,42,0.00
2017,10,11,05,43,0.00
2017,10,11,05,44,0.00
2017,10,11,05,45,0.00
2017,10,11,05,46,0.00
2017,10,11,05,47,0.00
2017,10,11,05,48,0.00
2017,10,11,05,49,0.00
2017,10,11,05,50,0.00
2017,10,11,05,51,0.00
2017,10,11,05,52,0.00
2017,10,11,05,53,0.00
2017,10,11,05,54,0.00
2017,10,11,05,55,0.00
2017,10,11,05,56,0.00
2017,10,11,05,57,0.00
2017,10,11,05,58,0.00
2017,10,11,05,59,0.00
2017,10,11,06,00,0.00
2017,10,11,06,01,0.00
2017,10,11,06,02,0.00
2017,10,11,06,03,0.00
2017,10,11,06,04,0.00
2017,10,11,06,05,0.00
2017,10,11,06,06,0.00
2017,10,11,06,07,0.00
2017,10,11,06,08,0.00
2017,10,11,06,09,0.00
2017,10,11,06,10,0.00
2017,10,11,06,11,0.00
2017,10,11,06,12,0.00
2017,10,11,06,13,0.00
2017,10,11,06,14,0.00
2017,10,11,06,15,0.00
2017,10,11,06,16,0.00
2017,10,11,06,17,0.00
2017,10,11,06,18,0.00
2017,10,11,06,19,0.00
2017,10,11,06,20,0.00
2017,10,11,06,21,0.00
2017,10,11,06,22,0.00
2017,10,11,06,23,0.00
2017,10,11,06,24,0.00
2017,10,11,06,25,0.00
2017,10,11,06,26,0.00
2017,10,11,06,27,0.00
2017,10,11,06,28,0.00
2017,10,11,06,29,0.00
2017,10,11,06,30,0.00
2017,10,11,06,31,0.00
2017,10,11,06,32,0.00
2017,10,11,06,33,0.00
2017,10,11,06,34,0.00
2017,10,11,06,35,0.00
2017,10,11,06,36,0.00
2017,10,11,06,37,0.00
2017,10,11,06,38,0.00
2017,10,11,06,39,0.00
2017,10,11,06,40,0.00
2017,10,11,06,41,0.00
2017,10,11,06,42,0.00
2017,10,11,06,43,0.00
2017,10,11,06,44,0.00
2017,10,11,06,45,0.00
2017,10,11,06,46,0.00
2017,10,11,06,47,0.00
2017,10,11,06,48,0.00
2017,10,11,06,49,0.00
2017,10,11,06,50,0.00
2017,10,11,06,51,0.00
2017,10,11,06,52,0.00
2017,10,11,06,53,0.00
2017,10,11,06,54,0.00
2017,10,11,06,55,0.00
2017,10,11,06,56,0.00
2017,10,11,06,57,0.00
2017,10,11,06,58,0.00
2017,10,11,06,59,0.00
2017,10,11,07,00,0.00
2017,10,11,07,01,0.00
2017,10,11,07,02,0.00
2017,10,11,07,03,0.00
2017,10,11,07,04,0.00
2017,10,11,07,05,0.00
2017,10,11,07,06,0.00
2017,10,11,07,07,0.00
2017,10,11,07,08,0.00
2017,10,11,07,09,0.00
2017,10,11,07,10,0.00
2017,10,11,07,11,0.00
2017,10,11,07,12,0.00
2017,10,11,07,13,0.00
2017,10,11,07,14,0.00
2017,10,11,07,15,0.00
2017,10,11,07,16,0.00
2017,10,11,07,17,0.00
2017,10,11,07,18,0.00
2017,10,11,07,19,0.00
2017,10,11,07,20,0.00
2017,10,11,07,21,0.00
2017,10,11,07,22,0.00
2017,10,11,07,23,0.00
2017,10,11,07,24,0.00
2017,10,11,07,25,0.00
2017,10,11,07,26,0.00
2017,10,11,07,27,0.00
2017,10,11,07,28,0.00
2017,10,11,07,29,0.00
2017,10,11,07,30,0.00
2017,10,11,07,31,0.00
2017,10,11,07,32,0.00
2017,10,11,07,33,0.00
2017,10,11,07,34,0.00
2017,10,11,07,35,0.00
2017,10,11,07,36,0.00
2017,10,11,07,37,0.00
2017,10,11,07,38,0.00
2017,10,11,07,39,0.00
2017,10,11,07,40,0.00
2017,10,11,07,41,0.00
2017,10,11,07,42,0.00
2017,10,11,07,43,0.00
2017,10,11,07,44,0.70
2017,10,11,07,45,5.00
2017,10,11,07,46,5.00
2017,10,11,07,47,5.00
2017,10,11,07,48,5.00
2017,10,11,07,49,5.00
2017,10,11,07,50,5.00
2017,10,11,07,51,5.00
2017,10,11,07,52,6.60
2017,10,11,07,53,7.00
2017,10,11,07,54,7.10
2017,10,11,07,55,9.00
2017,10,11,07,56,9.00
2017,10,11,07,57,9.00
2017,10,11,07,58,9.80
2017,10,11,07,59,11.00
2017,10,11,08,00,11.00
2017,10,11,08,01,11.70
2017,10,11,08,02,12.00
2017,10,11,08,03,12.00
2017,10,11,08,04,13.80
2017,10,11,08,05,14.00
2017,10,11,08,06,14.30
2017,10,11,08,07,16.00
2017,10,11,08,08,16.90
2017,10,11,08,09,19.00
2017,10,11,08,10,20.00
2017,10,11,08,11,23.20
2017,10,11,08,12,25.60
2017,10,11,08,13,26.00
2017,10,11,08,14,26.00
2017,10,11,08,15,26.00
2017,10,11,08,16,26.00
2017,10,11,08,17,26.60
2017,10,11,08,18,30.40
2017,10,11,08,19,32.30
2017,10,11,08,20,33.80
2017,10,11,08,21,35.00
2017,10,11,08,22,37.80
2017,10,11,08,23,40.00
2017,10,11,08,24,44.40
2017,10,11,08,25,46.00
2017,10,11,08,26,52.20
2017,10,11,08,27,53.50
2017,10,11,08,28,60.30
2017,10,11,08,29,62.00
2017,10,11,08,30,62.00
2017,10,11,08,31,64.90
2017,10,11,08,32,69.50
2017,10,11,08,33,72.20
2017,10,11,08,34,74.00
2017,10,11,08,35,75.40
2017,10,11,08,36,74.40
2017,10,11,08,37,72.10
2017,10,11,08,38,69.00
2017,10,11,08,39,69.00
2017,10,11,08,40,69.00
2017,10,11,08,41,69.00
2017,10,11,08,42,77.60
2017,10,11,08,43,83.70
2017,10,11,08,44,77.00
2017,10,11,08,45,95.90
2017,10,11,08,46,130.70
2017,10,11,08,47,137.40
2017,10,11,08,48,132.60
2017,10,11,08,49,129.90
2017,10,11,08,50,128.00
2017,10,11,08,51,128.00
2017,10,11,08,52,130.10
2017,10,11,08,53,125.40
2017,10,11,08,54,109.00
2017,10,11,08,55,87.30
2017,10,11,08,56,92.00
2017,10,11,08,57,92.40
2017,10,11,08,58,70.90
2017,10,11,08,59,63.40
2017,10,11,09,00,60.10
2017,10,11,09,01,60.00
2017,10,11,09,02,59.10
2017,10,11,09,03,58.70
2017,10,11,09,04,65.70
2017,10,11,09,05,74.00
2017,10,11,09,06,94.30
2017,10,11,09,07,104.00
2017,10,11,09,08,104.00
2017,10,11,09,09,162.70
2017,10,11,09,10,176.00
2017,10,11,09,11,181.00
2017,10,11,09,12,182.80
2017,10,11,09,13,193.00
2017,10,11,09,14,196.90
2017,10,11,09,15,208.00
2017,10,11,09,16,211.00
2017,10,11,09,17,211.00
2017,10,11,09,18,234.30
2017,10,11,09,19,183.80
2017,10,11,09,20,190.50
2017,10,11,09,21,147.20
2017,10,11,09,22,141.00
2017,10,11,09,23,148.00
2017,10,11,09,24,201.30
2017,10,11,09,25,257.20
2017,10,11,09,26,253.30
2017,10,11,09,27,216.00
2017,10,11,09,28,174.90
2017,10,11,09,29,135.30
2017,10,11,09,30,129.00
2017,10,11,09,31,128.00
2017,10,11,09,32,129.80
2017,10,11,09,33,126.70
2017,10,11,09,34,122.60
2017,10,11,09,35,119.60
2017,10,11,09,36,118.00
2017,10,11,09,37,118.00
2017,10,11,09,38,119.00
2017,10,11,09,39,120.00
2017,10,11,09,40,130.00
2017,10,11,09,41,135.00
2017,10,11,09,42,117.90
2017,10,11,09,43,123.80
2017,10,11,09,44,139.00
2017,10,11,09,45,139.00
2017,10,11,09,46,181.00
2017,10,11,09,47,301.00
2017,10,11,09,48,301.00
2017,10,11,09,49,301.00
2017,10,11,09,50,319.40
2017,10,11,09,51,333.30
2017,10,11,09,52,334.00
2017,10,11,09,53,324.20
2017,10,11,09,54,322.00
2017,10,11,09,55,320.70
2017,10,11,09,56,304.00
2017,10,11,09,57,308.10
2017,10,11,09,58,320.00
2017,10,11,09,59,318.50
2017,10,11,10,00,316.00
2017,10,11,10,01,315.40
2017,10,11,10,02,315.70
2017,10,11,10,03,316.00
2017,10,11,10,04,316.00
2017,10,11,10,05,328.40
2017,10,11,10,06,336.10
2017,10,11,10,07,338.10
2017,10,11,10,08,339.00
2017,10,11,10,09,339.00
2017,10,11,10,10,339.00
2017,10,11,10,11,345.70
2017,10,11,10,12,358.00
2017,10,11,10,13,362.00
2017,10,11,10,14,362.00
2017,10,11,10,15,362.00
2017,10,11,10,16,372.70
2017,10,11,10,17,318.00
2017,10,11,10,18,326.30
2017,10,11,10,19,358.40
2017,10,11,10,20,325.00
2017,10,11,10,21,374.30
2017,10,11,10,22,385.00
2017,10,11,10,23,386.10
2017,10,11,10,24,385.70
2017,10,11,10,25,385.00
2017,10,11,10,26,381.70
2017,10,11,10,27,394.30
2017,10,11,10,28,396.80
2017,10,11,10,29,406.00
2017,10,11,10,30,406.00
2017,10,11,10,31,417.60
2017,10,11,10,32,452.70
2017,10,11,10,33,474.10
2017,10,11,10,34,485.00
2017,10,11,10,35,485.00
2017,10,11,10,36,485.00
2017,10,11,10,37,555.10
2017,10,11,10,38,585.20
2017,10,11,10,39,590.30
2017,10,11,10,40,584.00
2017,10,11,10,41,584.00
2017,10,11,10,42,584.00
2017,10,11,10,43,584.00
2017,10,11,10,44,411.10
2017,10,11,10,45,204.40
2017,10,11,10,46,176.00
2017,10,11,10,47,169.00
2017,10,11,10,48,156.00
2017,10,11,10,49,153.00
2017,10,11,10,50,137.40
2017,10,11,10,51,133.70
2017,10,11,10,52,132.00
2017,10,11,10,53,130.70
2017,10,11,10,54,127.60
2017,10,11,10,55,126.00
2017,10,11,10,56,125.00
2017,10,11,10,57,123.70
2017,10,11,10,58,123.00
2017,10,11,10,59,118.90
2017,10,11,11,00,118.00
2017,10,11,11,01,103.50
2017,10,11,11,02,96.40
2017,10,11,11,03,94.60
2017,10,11,11,04,100.00
2017,10,11,11,05,100.00
2017,10,11,11,06,276.20
2017,10,11,11,07,467.20
2017,10,11,11,08,468.70
2017,10,11,11,09,473.40
2017,10,11,11,10,479.10
2017,10,11,11,11,482.70
2017,10,11,11,12,485.30
2017,10,11,11,13,489.40
2017,10,11,11,14,492.00
2017,10,11,11,15,493.70
2017,10,11,11,16,496.60
2017,10,11,11,17,495.00
2017,10,11,11,18,494.00
2017,10,11,11,19,491.30
2017,10,11,11,20,489.30
2017,10,11,11,21,489.00
2017,10,11,11,22,489.00
2017,10,11,11,23,485.10
2017,10,11,11,24,485.70
2017,10,11,11,25,487.80
2017,10,11,11,26,490.00
2017,10,11,11,27,510.00
2017,10,11,11,28,510.00
2017,10,11,11,29,510.00
2017,10,11,11,30,510.00
2017,10,11,11,31,510.00
2017,10,11,11,32,510.00
2017,10,11,11,33,197.10
2017,10,11,11,34,158.00
2017,10,11,11,35,158.00
2017,10,11,11,36,158.00
2017,10,11,11,37,158.00
2017,10,11,11,38,158.00
2017,10,11,11,39,366.50
2017,10,11,11,40,596.60
2017,10,11,11,41,601.00
2017,10,11,11,42,613.70
2017,10,11,11,43,627.10
2017,10,11,11,44,629.00
2017,10,11,11,45,629.60
2017,10,11,11,46,646.80
2017,10,11,11,47,659.00
2017,10,11,11,48,667.60
2017,10,11,11,49,672.60
2017,10,11,11,50,677.10
2017,10,11,11,51,679.00
2017,10,11,11,52,679.00
2017,10,11,11,53,679.00
2017,10,11,11,54,679.00
2017,10,11,11,55,180.30
2017,10,11,11,56,104.00
2017,10,11,11,57,96.40
2017,10,11,11,58,93.00
2017,10,11,11,59,92.10
2017,10,11,12,00,91.90
2017,10,11,12,01,95.00
2017,10,11,12,02,95.00
2017,10,11,12,03,382.70
2017,10,11,12,04,552.00
2017,10,11,12,05,552.00
2017,10,11,12,06,533.30
2017,10,11,12,07,526.20
2017,10,11,12,08,526.00
2017,10,11,12,09,526.00
2017,10,11,12,10,526.30
2017,10,11,12,11,528.60
2017,10,11,12,12,531.00
2017,10,11,12,13,534.00
2017,10,11,12,14,536.00
2017,10,11,12,15,536.00
2017,10,11,12,16,536.00
2017,10,11,12,17,539.60
2017,10,11,12,18,542.90
2017,10,11,12,19,544.00
2017,10,11,12,20,550.00
2017,10,11,12,21,554.50
2017,10,11,12,22,564.00
2017,10,11,12,23,577.00
2017,10,11,12,24,598.50
2017,10,11,12,25,616.30
2017,10,11,12,26,633.90
2017,10,11,12,27,647.80
2017,10,11,12,28,656.50
2017,10,11,12,29,656.10
2017,10,11,12,30,657.00
2017,10,11,12,31,657.00
2017,10,11,12,32,657.00
2017,10,11,12,33,657.00
2017,10,11,12,34,674.80
2017,10,11,12,35,700.10
2017,10,11,12,36,709.70
2017,10,11,12,37,712.00
2017,10,11,12,38,712.00
2017,10,11,12,39,720.90
2017,10,11,12,40,721.60
2017,10,11,12,41,729.00
2017,10,11,12,42,729.00
2017,10,11,12,43,729.00
2017,10,11,12,44,513.50
2017,10,11,12,45,200.00
2017,10,11,12,46,201.10
2017,10,11,12,47,202.00
2017,10,11,12,48,202.00
2017,10,11,12,49,202.00
2017,10,11,12,50,205.60
2017,10,11,12,51,216.00
2017,10,11,12,52,218.70
2017,10,11,12,53,234.80
2017,10,11,12,54,237.00
2017,10,11,12,55,237.00
2017,10,11,12,56,225.90
2017,10,11,12,57,209.90
2017,10,11,12,58,202.30
2017,10,11,12,59,196.30
2017,10,11,13,00,195.00
2017,10,11,13,01,207.40
2017,10,11,13,02,209.00
2017,10,11,13,03,202.20
2017,10,11,13,04,161.40
2017,10,11,13,05,156.00
2017,10,11,13,06,155.60
2017,10,11,13,07,155.00
2017,10,11,13,08,142.20
2017,10,11,13,09,132.00
2017,10,11,13,10,132.00
2017,10,11,13,11,132.00
2017,10,11,13,12,132.00
2017,10,11,13,13,536.10
2017,10,11,13,14,547.00
2017,10,11,13,15,547.00
2017,10,11,13,16,543.10
2017,10,11,13,17,534.00
2017,10,11,13,18,534.00
2017,10,11,13,19,533.40
2017,10,11,13,20,533.00
2017,10,11,13,21,533.70
2017,10,11,13,22,534.00
2017,10,11,13,23,534.00
2017,10,11,13,24,533.00
2017,10,11,13,25,532.40
2017,10,11,13,26,529.40
2017,10,11,13,27,531.00
2017,10,11,13,28,530.30
2017,10,11,13,29,528.00
2017,10,11,13,30,527.00
2017,10,11,13,31,528.30
2017,10,11,13,32,529.00
2017,10,11,13,33,529.00
2017,10,11,13,34,535.50
2017,10,11,13,35,536.00
2017,10,11,13,36,535.60
2017,10,11,13,37,533.00
2017,10,11,13,38,533.00
2017,10,11,13,39,534.20
2017,10,11,13,40,537.00
2017,10,11,13,41,538.00
2017,10,11,13,42,538.00
2017,10,11,13,43,540.20
2017,10,11,13,44,541.00
2017,10,11,13,45,495.60
2017,10,11,13,46,529.00
2017,10,11,13,47,529.00
2017,10,11,13,48,529.00
2017,10,11,13,49,529.00
2017,10,11,13,50,525.30
2017,10,11,13,51,519.50
2017,10,11,13,52,519.60
2017,10,11,13,53,522.70
2017,10,11,13,54,524.00
2017,10,11,13,55,524.00
2017,10,11,13,56,524.00
2017,10,11,13,57,524.00
2017,10,11,13,58,523.00
2017,10,11,13,59,517.40
2017,10,11,14,00,518.40
2017,10,11,14,01,517.00
2017,10,11,14,02,517.00
2017,10,11,14,03,517.00
2017,10,11,14,04,517.00
2017,10,11,14,05,517.00
2017,10,11,14,06,511.30
2017,10,11,14,07,510.00
2017,10,11,14,08,506.00
2017,10,11,14,09,505.70
2017,10,11,14,10,504.00
2017,10,11,14,11,504.00
2017,10,11,14,12,490.60
2017,10,11,14,13,486.90
2017,10,11,14,14,465.50
2017,10,11,14,15,487.70
2017,10,11,14,16,514.20
2017,10,11,14,17,505.20
2017,10,11,14,18,499.40
2017,10,11,14,19,497.00
2017,10,11,14,20,496.60
2017,10,11,14,21,494.00
2017,10,11,14,22,493.30
2017,10,11,14,23,491.20
2017,10,11,14,24,490.00
2017,10,11,14,25,489.40
2017,10,11,14,26,489.00
2017,10,11,14,27,486.00
2017,10,11,14,28,485.00
2017,10,11,14,29,485.00
2017,10,11,14,30,482.90
2017,10,11,14,31,482.00
2017,10,11,14,32,481.50
2017,10,11,14,33,479.30
2017,10,11,14,34,478.00
2017,10,11,14,35,481.40
2017,10,11,14,36,483.20
2017,10,11,14,37,482.00
2017,10,11,14,38,476.80
2017,10,11,14,39,473.40
2017,10,11,14,40,471.10
2017,10,11,14,41,470.90
2017,10,11,14,42,469.00
2017,10,11,14,43,468.20
2017,10,11,14,44,466.00
2017,10,11,14,45,465.20
2017,10,11,14,46,463.00
2017,10,11,14,47,462.00
2017,10,11,14,48,461.30
2017,10,11,14,49,459.50
2017,10,11,14,50,459.00
2017,10,11,14,51,459.00
2017,10,11,14,52,458.60
2017,10,11,14,53,454.00
2017,10,11,14,54,454.00
2017,10,11,14,55,454.00
2017,10,11,14,56,451.60
2017,10,11,14,57,447.00
2017,10,11,14,58,446.00
2017,10,11,14,59,446.00
2017,10,11,15,00,443.80
2017,10,11,15,01,443.00
2017,10,11,15,02,441.10
2017,10,11,15,03,439.00
2017,10,11,15,04,439.00
2017,10,11,15,05,439.00
2017,10,11,15,06,439.00
2017,10,11,15,07,436.10
2017,10,11,15,08,432.00
2017,10,11,15,09,430.30
2017,10,11,15,10,429.00
2017,10,11,15,11,427.50
2017,10,11,15,12,427.00
2017,10,11,15,13,424.30
2017,10,11,15,14,420.00
2017,10,11,15,15,420.00
2017,10,11,15,16,419.50
2017,10,11,15,17,417.70
2017,10,11,15,18,416.20
2017,10,11,15,19,414.00
2017,10,11,15,20,411.90
2017,10,11,15,21,410.30
2017,10,11,15,22,408.50
2017,10,11,15,23,406.40
2017,10,11,15,24,406.00
2017,10,11,15,25,402.90
2017,10,11,15,26,400.70
2017,10,11,15,27,399.00
2017,10,11,15,28,398.00
2017,10,11,15,29,396.00
2017,10,11,15,30,395.00
2017,10,11,15,31,394.00
2017,10,11,15,32,391.30
2017,10,11,15,33,388.50
2017,10,11,15,34,387.20
2017,10,11,15,35,385.20
2017,10,11,15,36,383.10
2017,10,11,15,37,383.00
2017,10,11,15,38,383.00
2017,10,11,15,39,380.30
2017,10,11,15,40,373.60
2017,10,11,15,41,373.00
2017,10,11,15,42,371.90
2017,10,11,15,43,369.70
2017,10,11,15,44,366.80
2017,10,11,15,45,366.00
2017,10,11,15,46,364.20
2017,10,11,15,47,362.10
2017,10,11,15,48,361.60
2017,10,11,15,49,358.10
2017,10,11,15,50,354.30
2017,10,11,15,51,353.00
2017,10,11,15,52,351.50
2017,10,11,15,53,350.00
2017,10,11,15,54,347.50
2017,10,11,15,55,346.00
2017,10,11,15,56,343.60
2017,10,11,15,57,341.20
2017,10,11,15,58,339.00
2017,10,11,15,59,338.90
2017,10,11,16,00,337.10
2017,10,11,16,01,334.00
2017,10,11,16,02,334.00
2017,10,11,16,03,331.60
2017,10,11,16,04,327.90
2017,10,11,16,05,325.70
2017,10,11,16,06,323.50
2017,10,11,16,07,322.20
2017,10,11,16,08,322.00
2017,10,11,16,09,321.50
2017,10,11,16,10,315.00
2017,10,11,16,11,312.10
2017,10,11,16,12,301.10
2017,10,11,16,13,301.00
2017,10,11,16,14,304.00
2017,10,11,16,15,302.90
2017,10,11,16,16,302.00
2017,10,11,16,17,302.00
2017,10,11,16,18,302.00
2017,10,11,16,19,293.10
2017,10,11,16,20,289.90
2017,10,11,16,21,287.60
2017,10,11,16,22,284.60
2017,10,11,16,23,283.00
2017,10,11,16,24,283.00
2017,10,11,16,25,283.00
2017,10,11,16,26,276.90
2017,10,11,16,27,272.00
2017,10,11,16,28,272.00
2017,10,11,16,29,266.30
2017,10,11,16,30,262.30
2017,10,11,16,31,256.70
2017,10,11,16,32,253.30
2017,10,11,16,33,253.90
2017,10,11,16,34,245.30
2017,10,11,16,35,233.10
2017,10,11,16,36,226.10
2017,10,11,16,37,220.20
2017,10,11,16,38,218.00
2017,10,11,16,39,189.10
2017,10,11,16,40,179.00
2017,10,11,16,41,151.40
2017,10,11,16,42,148.00
2017,10,11,16,43,148.10
2017,10,11,16,44,149.00
2017,10,11,16,45,149.00
2017,10,11,16,46,142.10
2017,10,11,16,47,122.90
2017,10,11,16,48,113.00
2017,10,11,16,49,113.00
2017,10,11,16,50,113.00
2017,10,11,16,51,109.70
2017,10,11,16,52,117.00
2017,10,11,16,53,121.40
2017,10,11,16,54,122.60
2017,10,11,16,55,97.00
2017,10,11,16,56,101.70
2017,10,11,16,57,113.00
2017,10,11,16,58,124.60
2017,10,11,16,59,138.10
2017,10,11,17,00,142.30
2017,10,11,17,01,144.00
2017,10,11,17,02,139.90
2017,10,11,17,03,139.00
2017,10,11,17,04,139.00
2017,10,11,17,05,139.40
2017,10,11,17,06,140.40
2017,10,11,17,07,138.00
2017,10,11,17,08,146.90
2017,10,11,17,09,149.60
2017,10,11,17,10,148.00
2017,10,11,17,11,142.00
2017,10,11,17,12,139.00
2017,10,11,17,13,131.30
2017,10,11,17,14,130.00
2017,10,11,17,15,129.80
2017,10,11,17,16,127.00
2017,10,11,17,17,127.00
2017,10,11,17,18,127.00